When you browse on this site, cookies collect data to enhance your experience and personalize the content and advertising you see.
Visit our Privacy Policy to learn more. By continuing to use the site, you agree to this use of cookies and data.
  • In Austria
  • List of Countries
  • For 7 days
  • Water Temperature
  • Weather Map
  • News
  • Weather Widgets
  • user-avatar
    Login

    Hourly Weather Cardonal

    Today, 17 September, Tuesday

    Time Temperature Precipitation Wind Pressure Humidity
    00:00 +14°C° 0 mm 0 mps 599 mmHg 94%
    01:00 +13°C° 0 mm 0 mps 599 mmHg 94%
    02:00 +13°C° 0 mm 0 mps 598 mmHg 93%
    03:00 +13°C° 0 mm 0 mps 598 mmHg 93%
    04:00 +13°C° 0 mm 0 mps 598 mmHg 93%
    05:00 +12°C° 0 mm 0 mps 598 mmHg 95%
    06:00 +14°C° 0 mm 0 mps 599 mmHg 88%
    07:00 +15°C° 0 mm 0 mps 600 mmHg 81%
    08:00 +17°C° 0 mm 0 mps 601 mmHg 75%
    09:00 +20°C° 0 mm 1 mps 601 mmHg 70%
    10:00 +20°C° 0 mm 2 mps 601 mmHg 66%
    11:00 +23°C° 0 mm 2 mps 602 mmHg 62%
    12:00 +23°C° 0.1 mm 2 mps 601 mmHg 62%
    13:00 +22°C° 0.1 mm 3 mps 601 mmHg 62%
    14:00 +24°C° 0.1 mm 3 mps 600 mmHg 61%
    15:00 +22°C° 0.1 mm 3 mps 600 mmHg 67%
    16:00 +21°C° 0.1 mm 3 mps 599 mmHg 73%
    17:00 +20°C° 0.1 mm 3 mps 599 mmHg 79%
    18:00 +19°C° 0.2 mm 2 mps 599 mmHg 85%
    19:00 +18°C° 0.2 mm 2 mps 599 mmHg 91%
    20:00 +16°C° 0.2 mm 1 mps 599 mmHg 97%
    21:00 +16°C° 0 mm 1 mps 599 mmHg 97%
    22:00 +16°C° 0 mm 1 mps 599 mmHg 97%
    23:00 +16°C° 0 mm 1 mps 599 mmHg 96%

    Tomorrow, 18 September, Wednesday

    Time Temperature Precipitation Wind Pressure Humidity
    00:00 +16°C° 0 mm 1 mps 599 mmHg 95%
    01:00 +15°C° 0 mm 0 mps 599 mmHg 93%
    02:00 +15°C° 0 mm 0 mps 599 mmHg 91%
    03:00 +15°C° 0 mm 0 mps 599 mmHg 91%
    04:00 +15°C° 0 mm 0 mps 598 mmHg 90%
    05:00 +15°C° 0 mm 0 mps 598 mmHg 90%
    06:00 +16°C° 0 mm 0 mps 599 mmHg 85%
    07:00 +17°C° 0 mm 0 mps 600 mmHg 79%
    08:00 +18°C° 0 mm 0 mps 600 mmHg 74%
    09:00 +21°C° 0 mm 1 mps 600 mmHg 70%
    10:00 +22°C° 0 mm 1 mps 601 mmHg 66%
    11:00 +23°C° 0 mm 1 mps 601 mmHg 62%
    12:00 +23°C° 0.5 mm 2 mps 600 mmHg 63%
    13:00 +24°C° 0.5 mm 2 mps 600 mmHg 64%
    14:00 +24°C° 0.5 mm 3 mps 599 mmHg 66%
    15:00 +22°C° 1.2 mm 3 mps 599 mmHg 72%
    16:00 +21°C° 1.2 mm 3 mps 599 mmHg 77%
    17:00 +20°C° 1.2 mm 3 mps 598 mmHg 83%
    18:00 +19°C° 1.4 mm 2 mps 599 mmHg 87%
    19:00 +18°C° 1.4 mm 2 mps 599 mmHg 90%
    20:00 +17°C° 1.4 mm 2 mps 599 mmHg 94%
    21:00 +18°C° 0.7 mm 1 mps 599 mmHg 93%
    22:00 +18°C° 0.7 mm 1 mps 599 mmHg 93%
    23:00 +16°C° 0.7 mm 0 mps 599 mmHg 92%

    Day after tomorrow, 19 September, Thursday

    Time Temperature Precipitation Wind Pressure Humidity
    00:00 +16°C° 0.7 mm 0 mps 599 mmHg 92%
    01:00 +16°C° 0.7 mm 1 mps 598 mmHg 93%
    02:00 +16°C° 0.7 mm 1 mps 598 mmHg 93%
    03:00 +16°C° 0.4 mm 1 mps 598 mmHg 94%
    04:00 +14°C° 0.4 mm 0 mps 598 mmHg 94%
    05:00 +14°C° 0.4 mm 0 mps 598 mmHg 94%
    06:00 +15°C° 0 mm 0 mps 598 mmHg 90%
    07:00 +18°C° 0 mm 1 mps 599 mmHg 85%
    08:00 +19°C° 0 mm 1 mps 599 mmHg 80%
    09:00 +20°C° 0 mm 1 mps 599 mmHg 76%
    10:00 +20°C° 0 mm 2 mps 599 mmHg 72%
    11:00 +21°C° 0 mm 3 mps 599 mmHg 68%
    12:00 +22°C° 0.2 mm 3 mps 599 mmHg 66%
    13:00 +22°C° 0.2 mm 4 mps 599 mmHg 65%
    14:00 +23°C° 0.2 mm 4 mps 599 mmHg 63%
    15:00 +21°C° 0.2 mm 4 mps 598 mmHg 69%
    16:00 +20°C° 0.2 mm 4 mps 598 mmHg 75%
    17:00 +19°C° 0.2 mm 4 mps 597 mmHg 81%
    18:00 +18°C° 0.1 mm 3 mps 598 mmHg 86%
    19:00 +17°C° 0.1 mm 2 mps 598 mmHg 91%
    20:00 +16°C° 0.1 mm 2 mps 598 mmHg 96%
    21:00 +16°C° 0 mm 1 mps 598 mmHg 95%
    22:00 +16°C° 0 mm 1 mps 598 mmHg 95%
    23:00 +16°C° 0 mm 1 mps 598 mmHg 94%

    20 September, Friday

    Time Temperature Precipitation Wind Pressure Humidity
    00:00 +15°C° 0 mm 1 mps 598 mmHg 93%
    01:00 +15°C° 0 mm 1 mps 598 mmHg 93%
    02:00 +15°C° 0 mm 1 mps 597 mmHg 92%
    03:00 +15°C° 0 mm 1 mps 597 mmHg 91%
    04:00 +15°C° 0 mm 1 mps 597 mmHg 91%
    05:00 +15°C° 0 mm 1 mps 597 mmHg 91%
    06:00 +15°C° 0 mm 1 mps 598 mmHg 87%
    07:00 +16°C° 0 mm 1 mps 598 mmHg 84%
    08:00 +18°C° 0 mm 1 mps 599 mmHg 80%
    09:00 +20°C° 0 mm 1 mps 599 mmHg 72%
    10:00 +21°C° 0 mm 1 mps 600 mmHg 63%
    11:00 +23°C° 0 mm 2 mps 600 mmHg 54%
    12:00 +24°C° 0 mm 3 mps 600 mmHg 53%
    13:00 +24°C° 0 mm 3 mps 600 mmHg 51%
    14:00 +25°C° 0 mm 4 mps 599 mmHg 49%
    15:00 +22°C° 0.1 mm 4 mps 599 mmHg 59%
    16:00 +21°C° 0.1 mm 3 mps 599 mmHg 68%
    17:00 +20°C° 0.1 mm 3 mps 598 mmHg 77%
    18:00 +18°C° 0.1 mm 3 mps 599 mmHg 83%
    19:00 +17°C° 0.1 mm 2 mps 599 mmHg 89%
    20:00 +16°C° 0.1 mm 1 mps 599 mmHg 95%
    21:00 +16°C° 0 mm 1 mps 599 mmHg 95%
    22:00 +16°C° 0 mm 1 mps 599 mmHg 95%
    23:00 +15°C° 0 mm 1 mps 599 mmHg 96%

    21 September, Saturday

    Time Temperature Precipitation Wind Pressure Humidity
    00:00 +15°C° 0 mm 1 mps 599 mmHg 95%
    01:00 +15°C° 0 mm 1 mps 599 mmHg 94%
    02:00 +15°C° 0 mm 1 mps 599 mmHg 93%
    03:00 +14°C° 0 mm 0 mps 599 mmHg 91%
    04:00 +14°C° 0 mm 0 mps 599 mmHg 89%
    05:00 +14°C° 0 mm 0 mps 599 mmHg 87%
    06:00 +15°C° 0 mm 0 mps 600 mmHg 81%
    07:00 +16°C° 0 mm 0 mps 600 mmHg 75%
    08:00 +18°C° 0 mm 0 mps 601 mmHg 69%
    09:00 +21°C° 0 mm 1 mps 601 mmHg 62%
    10:00 +21°C° 0 mm 2 mps 601 mmHg 56%
    11:00 +24°C° 0 mm 2 mps 601 mmHg 49%
    12:00 +24°C° 0 mm 3 mps 601 mmHg 50%
    13:00 +23°C° 0 mm 4 mps 600 mmHg 52%
    14:00 +25°C° 0 mm 4 mps 600 mmHg 53%
    15:00 +22°C° 0 mm 4 mps 600 mmHg 60%
    16:00 +21°C° 0 mm 4 mps 599 mmHg 68%
    17:00 +19°C° 0 mm 3 mps 599 mmHg 76%
    18:00 +18°C° 0 mm 3 mps 599 mmHg 82%
    19:00 +17°C° 0 mm 2 mps 599 mmHg 89%
    20:00 +16°C° 0 mm 1 mps 599 mmHg 96%
    21:00 +15°C° 0 mm 1 mps 599 mmHg 95%
    22:00 +15°C° 0 mm 1 mps 599 mmHg 94%
    23:00 +15°C° 0 mm 1 mps 599 mmHg 94%

    22 September, Sunday

    Time Temperature Precipitation Wind Pressure Humidity
    00:00 +13°C° 0 mm 0 mps 599 mmHg 94%
    01:00 +13°C° 0 mm 0 mps 598 mmHg 94%
    02:00 +13°C° 0 mm 0 mps 598 mmHg 94%
    03:00 +12°C° 0 mm 0 mps 598 mmHg 94%
    04:00 +12°C° 0 mm 0 mps 598 mmHg 94%
    05:00 +11°C° 0 mm 0 mps 598 mmHg 95%
    06:00 +13°C° 0 mm 0 mps 599 mmHg 85%
    07:00 +16°C° 0 mm 0 mps 600 mmHg 76%
    08:00 +18°C° 0 mm 0 mps 601 mmHg 66%
    09:00 +21°C° 0 mm 1 mps 601 mmHg 59%
    10:00 +23°C° 0 mm 1 mps 601 mmHg 52%
    11:00 +24°C° 0 mm 2 mps 602 mmHg 45%
    12:00 +25°C° 0 mm 3 mps 601 mmHg 46%
    13:00 +25°C° 0 mm 3 mps 601 mmHg 47%
    14:00 +25°C° 0 mm 4 mps 600 mmHg 48%
    15:00 +23°C° 0.1 mm 4 mps 600 mmHg 58%
    16:00 +21°C° 0.1 mm 3 mps 599 mmHg 67%
    17:00 +20°C° 0.1 mm 3 mps 599 mmHg 77%
    18:00 +18°C° 0 mm 3 mps 599 mmHg 84%
    19:00 +17°C° 0 mm 2 mps 599 mmHg 90%
    20:00 +16°C° 0 mm 1 mps 599 mmHg 97%
    21:00 +15°C° 0 mm 1 mps 599 mmHg 96%
    22:00 +15°C° 0 mm 1 mps 599 mmHg 95%
    23:00 +14°C° 0 mm 0 mps 599 mmHg 95%
    Show more